Location: �couen
(49.0206°N, 2.3831°E)
Time: 08:10:08
(UTC+00:00)

Cosmos 2150 Rocket - Pass Details

Date: 16 October 2021
Orbit: 750 x 807 km, 74.0° (Epoch: 02 December)

Event Time Altitude Azimuth Distance (km) Brightness Sun altitude
Rises 18:13:55 0° 200° (SSW) 3,307 7.5 -13.1°
Reaches altitude 10° 18:16:19 10° 200° (SSW) 2,377 6.8 -13.5°
Maximum altitude 18:21:45 88° 114° (ESE) 806 4.1 -14.4°
Drops below altitude 10° 18:27:10 10° 24° (NNE) 2,366 6.3 -15.3°
Sets 18:29:33 0° 24° (NNE) 3,290 7.1 -15.7°
